#timestamp,LO_Frequency,Hit,StdDev 
1630659615.7,286046997.9,N
1630659635.5,286046996.7,N
1630659655.3,286046998.9,N
1630659675.2,286047001.0,N
1630659695.0,286046998.1,N
1630659695.9,286046998.1,N
1630659715.7,286046999.4,N
1630659735.6,286046997.7,N
1630659755.4,286046998.1,N
1630659775.3,286046997.3,N
1630659795.1,286046996.5,N
1630659796.0,286046996.5,N
1630659815.8,286046999.5,N
1630659835.7,286046999.1,N
1630659855.5,286047000.5,N
1630659875.3,286046998.7,N
1630659895.2,286046998.6,N
1630659915.0,286047000.7,N
1630659915.9,286047000.7,N
1630659935.8,286046998.7,N
1630659955.6,286046998.9,N
1630659975.4,286046996.8,N
1630659995.3,286046997.0,N
1630660015.1,286046997.2,N
1630660035.8,286046997.0,N
1630660055.7,286046997.0,N
1630660075.5,286046998.6,N
1630660095.4,286046998.9,N
1630660115.2,286046996.5,N
1630660135.0,286046997.1,N
1630660135.9,286046997.1,N
1630660155.8,286046996.5,N
1630660175.6,286047000.2,N
1630660195.4,286046998.4,N
1630660215.3,286046998.1,N
1630660235.1,286047000.2,N
1630660255.9,286046998.2,N
1630660275.7,286046997.1,N
1630660295.5,286046997.3,N
1630660315.4,286046998.0,N
1630660335.2,286046997.4,N
1630660355.0,286046997.9,N
1630660355.9,286046997.9,N
1630660375.8,286046996.9,N
1630660395.6,286046997.7,N
1630660415.5,286046997.4,N
1630660435.3,286046996.3,Y
1630660455.1,286046996.2,P
1630660475.9,286047011.9,P
1630660495.7,286046999.6,N
1630660515.6,286046997.8,N
1630660535.4,286046995.5,N
1630660555.2,286046994.9,N
1630660575.1,286046995.3,N
1630660576.0,286046995.3,N
1630660595.8,286046995.1,N
1630660615.6,286046998.0,N
1630660635.5,286046995.5,N
1630660655.3,286046996.5,N
1630660675.2,286046998.4,N
1630660695.9,286047002.6,N
1630660715.7,286047000.5,N
1630660735.6,286046998.3,N
1630660755.4,286046998.7,N
1630660775.2,286046997.0,N
1630660795.1,286046997.8,N
1630660796.0,286046997.8,N
1630660815.8,286046995.1,N
1630660835.7,286046993.5,N
1630660855.5,286046993.4,N
1630660875.3,286046996.3,N
1630660895.2,286046994.4,N
1630660915.0,286046994.2,N
1630660915.9,286046994.2,N
1630660935.7,286046993.5,N
1630660955.6,286046995.8,N
1630660975.4,286046995.3,N
1630660995.3,286046998.3,N
1630661015.1,286046999.5,N
1630661016.0,286046999.5,N
1630661035.8,286046997.0,N
1630661055.7,286046995.5,N
1630661075.5,286046995.5,N
1630661095.4,286046996.0,N
1630661115.2,286046994.5,N
1630661135.0,286046993.6,N
1630661135.9,286046993.6,N
1630661155.8,286046996.4,N
1630661175.6,286046996.3,N
1630661195.4,286046994.0,N
1630661215.3,286046995.4,N
1630661235.1,286046997.3,N
1630661255.9,286046999.6,N
1630661275.7,286046998.9,N
1630661295.5,286047011.9,Y
1630661315.4,286047001.0,P
1630661335.2,286046998.4,N
1630661355.0,286046998.7,N
1630661355.9,286046998.7,N
1630661375.8,286046997.5,N
1630661395.6,286046995.2,Y
1630661415.5,286046996.8,P
1630661435.3,286046998.6,N
1630661455.1,286046998.3,N
1630661475.9,286047001.2,N
1630661495.7,286046999.9,N
1630661515.5,286046999.7,N
1630661535.4,286047000.8,N
1630661555.2,286047000.7,N
1630661575.1,286047000.1,N
1630661576.0,286047000.1,N
1630661595.8,286047002.7,N
1630661615.6,286047004.1,N
1630661635.5,286047004.4,N
1630661655.3,286047004.2,N
1630661675.1,286047002.2,N
1630661695.9,286047002.8,N
1630661715.7,286046998.5,N
1630661735.6,286046998.7,N
1630661755.4,286046998.7,N
1630661775.2,286047000.8,N
1630661795.1,286047000.4,N
1630661796.0,286047000.4,N
1630661815.8,286047000.3,N
1630661835.6,286046998.4,N
1630661855.5,286047001.2,N
1630661875.3,286047000.9,N
1630661895.2,286047000.9,N
1630661915.9,286047000.2,N
1630661935.7,286047001.2,N
1630661955.6,286046999.2,N
1630661975.4,286046997.2,N
1630661995.2,286046999.1,N
1630662015.1,286047001.2,N
1630662016.0,286047001.2,N
1630662035.8,286046999.3,N
1630662055.7,286047000.9,N
1630662075.5,286047000.8,N
1630662095.3,286046998.7,N
1630662115.2,286047000.7,N
1630662135.0,286046997.8,N
1630662135.9,286046997.8,N
1630662155.7,286046999.0,N
1630662175.6,286046998.4,N
1630662195.4,286046996.8,N
1630662215.3,286046997.8,N
1630662235.1,286046995.8,N
1630662236.0,286046995.8,N
1630662255.8,286046993.3,Y
1630662275.7,286046995.1,P
1630662295.5,286046995.0,N
1630662315.4,286046996.1,N
1630662335.2,286046995.0,N
1630662355.0,286046997.6,N
1630662355.9,286046997.6,N
1630662375.8,286046998.0,N
1630662395.6,286046997.3,N
1630662415.4,286046995.5,Y
1630662435.3,286046996.6,P
1630662455.1,286046999.6,P
1630662475.9,286046999.6,N
1630662495.7,286046999.4,N
1630662515.5,286046998.2,N
1630662535.4,286047001.1,N
1630662555.2,286046997.1,N
1630662575.0,286046997.6,N
1630662575.9,286046997.6,N
1630662595.8,286046996.2,N
1630662615.6,286046995.7,N
1630662635.5,286046995.4,N
1630662655.3,286046996.3,N
1630662675.1,286046996.0,N
1630662695.9,286046993.4,Y
1630662715.7,286047000.0,P
1630662735.5,286047000.3,N
1630662755.4,286047000.6,N
1630662775.2,286047001.8,N
1630662795.1,286047002.5,N
1630662796.0,286047002.5,N
1630662815.8,286047002.0,N
1630662835.6,286047001.9,N
1630662855.5,286047004.0,N
1630662875.3,286047004.0,N
1630662895.1,286047003.5,N
1630662915.9,286047003.1,N
1630662935.7,286047003.1,N
1630662955.6,286047005.8,Y
1630662975.4,286047001.3,P
1630662995.2,286047001.8,P
1630663015.1,286047003.1,P
1630663016.0,286047003.1,Y
1630663035.8,286047001.6,P
1630663055.7,286047001.5,P
1630663075.5,286047004.3,P
1630663095.3,286047003.3,N
1630663115.2,286047004.2,Y
1630663135.0,286047000.8,P
1630663135.9,286047000.8,N
1630663155.7,286047000.0,N
1630663175.6,286047000.3,N
1630663195.4,286046999.2,N
